Simultaneous Nadir Overpasses (SNOs) Predictions

Prediction of SNOs between GOES-14 and NOAA-20 Satellite Orbit:

Table of predicted SNOs for the next 14.0 days since TLE Epoch: 10/9/2018
Index Date Time (GOES-14) GOES-14 Lat,Lon NOAA-20 Lat,Lon Distance(km) Time Diff (sec)
1 10/10/2018 08:32:22 0.25,-104.11 0.80,-106.54 277.52 80
2 10/11/2018 08:10:58 0.26,-104.10 -0.23,-102.01 238.23 80
3 10/12/2018 20:32:53 -0.24,-104.09 -0.99,-107.31 367.31 80
4 10/13/2018 20:16:48 -0.25,-104.10 0.05,-102.78 150.17 80
5 10/15/2018 08:38:37 0.22,-104.12 1.09,-108.06 448.47 80
6 10/16/2018 08:17:11 0.24,-104.11 0.11,-103.52 67.26 80
7 10/18/2018 20:20:22 -0.22,-104.08 -0.27,-104.29 23.65 80
8 10/19/2018 20:04:18 -0.23,-104.09 0.77, -99.76 493.99 80
9 10/21/2018 08:26:05 0.20,-104.12 0.42,-105.03 103.07 80
10 10/22/2018 08:04:39 0.22,-104.12 -0.57,-100.49 412.98 80




NCC Satellite Simultaneous Nadir Overpasses (SNOs) Prediction Service
